Regional Weather Roundup
Issued by NWS

Home | Current Version | Previous Version | Text Only | Print | Product List | Glossary Off
Versions: 1 2 3 4 5 6 7 8 9 10 11 12 13 14 15 16 17 18 19 20 21 22 23 24 25 26 27 28 29 30 31 32 33 34 35 36 37 38 39 40 41 42 43 44 45 46 47 48 49

000
ASUS45 KCYS 181210
RWRWY

WYOMING REGIONAL WEATHER ROUNDUP
NATIONAL WEATHER SERVICE CHEYENNE WY
600 AM MDT SAT APR 18 2015

NOTE:  "FAIR" INDICATES FEW OR NO CLOUDS BELOW 12,000 FEET
WITH NO SIGNIFICANT WEATHER AND/OR OBSTRUCTIONS TO VISIBILITY.

WYZ001-181300-
YELLOWSTONE NATIONAL PARK

CITY           SKY/WX    TMP DP  RH WIND       PRES   REMARKS
LK YELLOWSTONE   N/A     21  17  84 CALM      30.15R
6HR MIN TEMP:  21; 6HR MAX TEMP:  28;

W YELLOWSTONE  NOT AVBL

$$
WYZ002>013-054>058-071-098>099-181300-
NORTHERN WYOMING

CITY           SKY/WX    TMP DP  RH WIND       PRES   REMARKS
JACKSON        FAIR      28  23  80 CALM      30.09R
CODY           FAIR      39  28  65 SW3       30.02S
GREYBULL       FAIR      34  26  72 W3        30.01R
6HR MIN TEMP:  34; 6HR MAX TEMP:  47;

WORLAND        FAIR      33  31  92 CALM      30.01R
6HR MIN TEMP:  33; 6HR MAX TEMP:  43;

SHERIDAN       FAIR      31  28  89 W3        29.99S
6HR MIN TEMP:  29; 6HR MAX TEMP:  43;

BUFFALO        FAIR      39  27  62 W7        30.00S WCI  34
6HR MIN TEMP:  36; 6HR MAX TEMP:  46;

GILLETTE       FAIR      36  35  96 NE3       30.00F
6HR MIN TEMP:  36; 6HR MAX TEMP:  45;

HULETT         FAIR      39  37  93 CALM      30.02F
NEWCASTLE      PTSUNNY   43  41  93 N6        30.00S

$$
WYZ014>020-022>026-101>103-181300-
CENTRAL WYOMING

CITY           SKY/WX    TMP DP  RH WIND       PRES   REMARKS
BIG PINEY      FAIR      23  20  88 E5        30.06S WCI  17
6HR MIN TEMP:  23; 6HR MAX TEMP:  31;

PINEDALE       FAIR      23  21  93 W6        30.06S WCI  16
DUBOIS         FAIR      28  21  74 W10       30.05S WCI  19
LANDER         FAIR      33  30  88 SE3       30.03S
6HR MIN TEMP:  31; 6HR MAX TEMP:  41;

RIVERTON       FAIR      34  31  88 SW7       30.04S WCI  28
6HR MIN TEMP:  32; 6HR MAX TEMP:  40;

CASPER         CLOUDY    37  36  96 SW5       30.00S WCI  33
6HR MIN TEMP:  36; 6HR MAX TEMP:  37;

DOUGLAS        CLOUDY    37  36  96 NW7       30.00S WCI  32
6HR MIN TEMP:  37; 6HR MAX TEMP:  38;


$$
WYZ021-027>030-104>119-181300-
SOUTHERN WYOMING

CITY           SKY/WX    TMP DP  RH WIND       PRES   REMARKS
EVANSTON       FAIR      33  29  85 S3        30.07F
6HR MIN TEMP:  31; 6HR MAX TEMP:  36;

FORT BRIDGER   SUNNY     34  32  93 SW10      30.09S WCI  26
ROCK SPRINGS   MOCLDY    34  32  92 NW7       30.04F WCI  28
6HR MIN TEMP:  34; 6HR MAX TEMP:  37;

DIXON          CLOUDY    29  27  94 CALM      30.04R
RAWLINS        CLOUDY    33  32  96 E8        30.01R WCI  26
6HR MIN TEMP:  32; 6HR MAX TEMP:  33;

SARATOGA       LGT SNOW  32  32 100 NW3       30.01S
LARAMIE        LGT SNOW  29  28  96 NW5       29.96F FOG     WCI  24
6HR MIN TEMP:  22; 6HR MAX TEMP:  29; 6HR PCP:  0.05;

CHEYENNE       CLOUDY    35  32  88 W6        29.95R WCI  30
6HR MIN TEMP:  33; 6HR MAX TEMP:  35; 6HR PCP:  0.03;

TORRINGTON     LGT RAIN  41  40  96 N7        29.93F
6HR MIN TEMP:  40; 6HR MAX TEMP:  43; 6HR PCP:  0.53;

PINE BLUFFS    CLOUDY    36  36 100 NW6       29.95F WCI  31

$$



USA.gov is the U.S. government's official web portal to all federal, state and local government web resources and services.